Showing default

FLOCK 4Q 15, 58319

Orbit data source: Space-Track

FLOCK 4Q 15, 58319 is a payload satellite owned by Planet (US) in SSO that was launched on Sat, 11 Nov 2023 UTC via an FALCON 9 launch vehicle from the Air Force Western Test Range (AFWTR). Payload-class satellites include a variety of spacecraft equipped with specific instruments for various scientific and technological missions. These include communications satellites like Starlink; space stations such as the ISS; scientific satellites like the Hubble; Earth observation satellites from companies like Planet Labs, Umbra, and HawkEye 360; GPS; miniature CubeSats for education and research; and military/defense satellites.

Not visible in the next 10 days
Identifier
58319, 2023-174BR
Orbit
SSO
Country
Flag of USUS
Related business
Manufacturer
Planet
Mission
Non-operational Commercial Imaging
Bus & Motor
CUBESAT 3U, Unknown motor
Mass
5.7 kg wet, 5.7 kg dry
Launch date (UTC)
2023-11-11 (2 years ago)
Launch vehicle
FALCON 9
Launch site
Air Force Western Test Range (AFWTR)
Object type
Payload
Rocket body
Debris
Shape & HBR
Box + 2 Pan, 1.0 m
Radar Cross Section
0.072 m², Medium (>0.1 m² and < 1m²)

Expand to show TLE details & history
Last TLE update: 20 hours ago

TLE from 20 hours ago
0 FLOCK 4Q 15
1 58319U 23174BR  26126.20733153  .00311884  00000-0  14365-2 0  9990
2 58319  97.3816 220.2909 0007876 251.0158 109.0258 15.82736096139494
Epoch: 2026-05-06T04:58Z
TLE epoch observation values (Epoch: 2026-05-06T04:58:33.444Z)
Latitude
0.00001°
Longitude
-78.41959°
Altitude
327.607 km
Speed
7.711 km/s
True Right ascension
14h 41m 09s
True Declination
0° 00' 00"
Sunlit
Object was in full shadow at epoch
Visualization orbit readout
Latitude
Unknown
Longitude
Unknown
Altitude
Unknown
Speed
Unknown
Apparent Right ascension
Unknown
Apparent Declination
Unknown
Sunlit
N/A
Visualization observer readout
Local Sidereal Time
08:29:53
Azimuth
Unknown
Elevation
Unknown
Doppler factor
Unknown
Orbital elements
Apogee altitude
324.864 km
Perigee altitude
314.313 km
Semi-major axis
6,697.726 km
Eccentricity
0.00079
Inclination
97.3816°
RAAN
220.2909°
Arg. of periapsis
251.0158°
True anomaly
109.11109°
Mean anomaly
109.0258°
Eccentric anomaly
109.06845°
Mean motion
3.95961 °/min
Orbital period
90.92 mins
BSTAR
0.0014365
Loading maneuver chart data...
Computing Atmospheric mass density...
Loading historical data...
Loading historical data...
Loading historical data...
Loading historical data...
Loading historical data...
Loading historical data...
Loading historical data...

Documentation

Showing up to 5 results
|